Lakehurst NAS, NJ

11:01 AM EDT on October 19, 2017 (GMT -0400)
Lakehurst Naes

Weather History for KNEL - November, 2012

Change the Weather History Date:

Monday, November 19, 2012

  Actual Average Record
Temperature  
Mean Temperature 46 °F -  
Max Temperature 46 °F 51 °F 65 °F (2003)
Min Temperature 42 °F 36 °F 26 °F (2005)
Degree Days  
Heating Degree Days 18    
Moisture  
Dew Point 39 °F    
Average Humidity 76    
Maximum Humidity 85    
Minimum Humidity 62    
Precipitation  
Precipitation 0.00 in - - ()
Sea Level Pressure  
Sea Level Pressure 30.39 in    
Wind  
Wind Speed 5 mph (NE)    
Max Wind Speed 9 mph    
Max Gust Speed 17 mph    
Averages and records for this station are not official NWS values.
T = Trace of Precipitation, MM = Missing Value Source: NWS Daily Summary

Daily Weather History Graph

Daily Weather History Graph

Search for Another Location

Airport or City:

Trip Planner

Search our weather history database for the weather conditions in past years. The results will help you decide how hot, cold, wet, or windy it might be!

Date:

Astronomy

Nov. 19, 2012 Rise Set
Actual Time 6:47 AM EST 4:37 PM EST
Civil Twilight 6:18 AM EST 5:07 PM EST
Nautical Twilight 5:45 AM EST 5:40 PM EST
Astronomical Twilight 5:13 AM EST 6:12 PM EST
Moon 11:49 AM EST 11:02 PM EST
Length of Visible Light 10h 48m
Length of Day
9h 50m
Waxing Crescent, 40% of the Moon is Illuminated
Nov 19
Waxing Crescent
Nov 20
First Quarter
Nov 28
Full
Dec 6
Last Quarter
Dec 13
New

Hourly Weather History & Observations

Time (EST) Temp. Windchill Dew Point Humidity Pressure Visibility Wind Dir Wind Speed Gust Speed Precip Events Conditions
12:00 AM 43.0 °F - 37.0 °F 80% 30.52 in - Calm Calm - N/A   Mostly Cloudy
1:00 AM 46.9 °F - 37.9 °F 71% 30.50 in - NE 5.8 mph - N/A   Overcast
2:00 AM 46.9 °F - 39.9 °F 77% 30.49 in - NE 8.1 mph - N/A   Overcast
2:39 AM 44.6 °F 39.7 °F 39.2 °F 81% 30.48 in - NE 9.2 mph - N/A   Scattered Clouds
3:00 AM 45.0 °F 41.2 °F 39.0 °F 80% 30.47 in - NE 6.9 mph - N/A   Clear
4:00 AM 44.1 °F 40.8 °F 39.0 °F 82% 30.45 in - Variable 5.8 mph - N/A   Clear
5:00 AM 43.0 °F 39.5 °F 37.9 °F 82% 30.45 in - Variable 5.8 mph - N/A   Clear
6:00 AM 42.1 °F - 37.9 °F 85% 30.45 in - Calm Calm - N/A   Partly Cloudy
6:16 AM 42.8 °F 41.1 °F 37.4 °F 81% 30.46 in - NE 3.5 mph - N/A   Mostly Cloudy
7:00 AM 42.1 °F 39.2 °F 37.9 °F 85% 30.45 in - Variable 4.6 mph - N/A   Overcast
8:00 AM 43.0 °F 40.3 °F 37.9 °F 82% 30.45 in - NE 4.6 mph - N/A   Overcast
8:09 AM - - - N/A% - - North - - N/A   Unknown
9:00 AM 44.1 °F 40.1 °F 37.9 °F 79% 30.43 in - NE 6.9 mph - N/A   Overcast
9:51 AM 46.4 °F 43.5 °F 39.2 °F 76% 30.43 in - NE 5.8 mph - N/A   Overcast
10:00 AM 46.9 °F - 39.9 °F 77% 30.43 in - NE 9.2 mph - N/A   Overcast
11:00 AM 48.9 °F - 39.9 °F 71% 30.40 in - Variable 6.9 mph - N/A   Mostly Cloudy
11:47 AM 50.0 °F - 39.2 °F 66% 30.38 in - Variable 6.9 mph 17.3 mph N/A   Scattered Clouds
12:00 PM 50.0 °F - 39.9 °F 68% 30.36 in - Variable 6.9 mph - N/A   Clear
12:51 PM 51.8 °F - 39.2 °F 62% 30.35 in - Variable 3.5 mph - N/A   Overcast
1:00 PM 51.1 °F - 39.9 °F 66% 30.35 in - NE 9.2 mph - N/A   Overcast
2:00 PM 50.0 °F - 39.9 °F 68% 30.33 in - North 5.8 mph - N/A   Overcast
3:00 PM 48.9 °F - 39.9 °F 71% 30.32 in - Variable 3.5 mph - N/A   Overcast
4:00 PM 48.0 °F - 39.9 °F 74% 30.32 in - NNE 4.6 mph - N/A   Overcast
5:00 PM 48.0 °F - 39.9 °F 74% 30.31 in - Variable 4.6 mph - N/A   Overcast
6:00 PM 46.9 °F - 39.9 °F 77% 30.31 in - Variable 3.5 mph - N/A   Overcast
7:00 PM 46.9 °F - 41.0 °F 80% 30.29 in - Variable 3.5 mph - N/A   Overcast
8:00 PM 46.9 °F - 41.0 °F 80% 30.28 in - NE 4.6 mph - N/A   Overcast
9:00 PM 46.9 °F - 41.0 °F 80% 30.27 in - NE 5.8 mph - N/A   Overcast
10:00 PM 46.9 °F - 41.0 °F 80% 30.26 in - Variable 3.5 mph - N/A   Overcast
11:00 PM 46.9 °F - 39.9 °F 77% 30.24 in - NE 6.9 mph - N/A   Overcast